| time (UTC) | temp F | wind direction | speed knots | gust knots | rain 1hr in | rain 24hr in | rain mn in | humidity % | barometer mb |
| 20260505190731 | 82 | 185 | 8.7 | 14.8 | 0.00 | 0.00 | 0.00 | 69 | 1005.2 |
| 20260505185731 | 79 | 191 | 9.6 | 16.5 | 0.00 | 0.00 | 0.00 | 75 | 1005.4 |
| 20260505184732 | 79 | 191 | 9.6 | 16.5 | 0.00 | 0.00 | 0.00 | 75 | 1005.4 |
| 20260505181732 | 79 | 191 | 9.6 | 16.5 | 0.00 | 0.00 | 0.00 | 75 | 1005.4 |
| 20260505170732 | 79 | 191 | 9.6 | 16.5 | 0.00 | 0.00 | 0.00 | 75 | 1005.4 |
| 20260505161732 | 75 | 184 | 10.4 | 20.0 | 0.00 | 0.00 | 0.00 | 78 | 1005.4 |
| 20260505160732 | 75 | 184 | 10.4 | 20.0 | 0.00 | 0.00 | 0.00 | 78 | 1005.4 |
| 20260505151732 | 73 | 196 | 9.6 | 16.5 | 0.00 | 0.00 | 0.00 | 81 | 1005.3 |
| 20260505150731 | 73 | 196 | 9.6 | 16.5 | 0.00 | 0.00 | 0.00 | 81 | 1005.3 |
| 20260505124731 | 70 | 175 | 7.0 | 18.2 | 0.00 | 0.00 | 0.00 | 88 | 1004.1 |
| 20260505123731 | 70 | 175 | 7.0 | 18.2 | 0.00 | 0.00 | 0.00 | 88 | 1004.1 |
| 20260505122732 | 70 | 175 | 7.0 | 18.2 | 0.00 | 0.00 | 0.00 | 88 | 1004.1 |
| 20260505121733 | 70 | 175 | 7.0 | 18.2 | 0.00 | 0.00 | 0.00 | 88 | 1004.1 |
| 20260505120731 | 70 | 175 | 7.0 | 18.2 | 0.00 | 0.00 | 0.00 | 88 | 1004.1 |
| 20260505114732 | 70 | 165 | 8.7 | 18.2 | 0.00 | 0.00 | 0.00 | 88 | 1003.8 |
| 20260505110731 | 70 | 165 | 8.7 | 18.2 | 0.00 | 0.00 | 0.00 | 88 | 1003.8 |
| 20260505101732 | 70 | 185 | 7.0 | 18.2 | 0.00 | 0.00 | 0.00 | 87 | 1003.9 |
| 20260505100731 | 70 | 185 | 7.0 | 18.2 | 0.00 | 0.00 | 0.00 | 87 | 1003.9 |
| 20260505095732 | 70 | 195 | 7.0 | 14.8 | 0.00 | 0.00 | 0.00 | 87 | 1004.5 |
| 20260505094731 | 70 | 195 | 7.0 | 14.8 | 0.00 | 0.00 | 0.00 | 87 | 1004.5 |
| 20260505093731 | 70 | 195 | 7.0 | 14.8 | 0.00 | 0.00 | 0.00 | 87 | 1004.5 |
| 20260505092731 | 70 | 195 | 7.0 | 14.8 | 0.00 | 0.00 | 0.00 | 87 | 1004.5 |
| 20260505091731 | 70 | 195 | 7.0 | 14.8 | 0.00 | 0.00 | 0.00 | 87 | 1004.5 |
| 20260505090731 | 70 | 195 | 7.0 | 14.8 | 0.00 | 0.00 | 0.00 | 87 | 1004.5 |
| 20260505085731 | 69 | 199 | 8.7 | 20.0 | 0.00 | 0.00 | 0.00 | 87 | 1004.7 |
| 20260505083731 | 69 | 199 | 8.7 | 20.0 | 0.00 | 0.00 | 0.00 | 87 | 1004.7 |
| 20260505082731 | 69 | 199 | 8.7 | 20.0 | 0.00 | 0.00 | 0.00 | 87 | 1004.7 |
| 20260505081731 | 69 | 199 | 8.7 | 20.0 | 0.00 | 0.00 | 0.00 | 87 | 1004.7 |
| 20260505075731 | 70 | 197 | 9.6 | 18.2 | 0.00 | 0.00 | 0.00 | 85 | 1005.5 |
| 20260505073731 | 70 | 197 | 9.6 | 18.2 | 0.00 | 0.00 | 0.00 | 85 | 1005.5 |
| 20260505072731 | 70 | 197 | 9.6 | 18.2 | 0.00 | 0.00 | 0.00 | 85 | 1005.5 |
| 20260505071731 | 70 | 197 | 9.6 | 18.2 | 0.00 | 0.00 | 0.00 | 85 | 1005.5 |
| 20260505070731 | 70 | 197 | 9.6 | 18.2 | 0.00 | 0.00 | 0.00 | 85 | 1005.5 |
| 20260505065732 | 71 | 208 | 8.7 | 18.2 | 0.00 | 0.00 | 0.00 | 82 | 1005.8 |
| 20260505064731 | 71 | 208 | 8.7 | 18.2 | 0.00 | 0.00 | 0.00 | 82 | 1005.8 |
| 20260505063731 | 71 | 208 | 8.7 | 18.2 | 0.00 | 0.00 | 0.00 | 82 | 1005.8 |
| 20260505061732 | 71 | 208 | 8.7 | 18.2 | 0.00 | 0.00 | 0.00 | 82 | 1005.8 |
| 20260505055733 | 72 | 177 | 7.0 | 16.5 | 0.00 | 0.00 | 0.00 | 80 | 1006.3 |
| 20260505053732 | 72 | 177 | 7.0 | 16.5 | 0.00 | 0.00 | 0.00 | 80 | 1006.3 |
| 20260505051732 | 72 | 177 | 7.0 | 16.5 | 0.00 | 0.00 | 0.00 | 80 | 1006.3 |
| 20260505050733 | 72 | 177 | 7.0 | 16.5 | 0.00 | 0.00 | 0.00 | 80 | 1006.3 |
| 20260505041732 | 72 | 199 | 7.0 | 13.9 | 0.00 | 0.00 | 0.00 | 78 | 1006.4 |
| 20260505040732 | 72 | 199 | 7.0 | 13.9 | 0.00 | 0.00 | 0.00 | 78 | 1006.4 |
| 20260505035733 | 72 | 173 | 5.2 | 13.0 | 0.00 | 0.00 | 0.00 | 77 | 1006.5 |
| 20260505034732 | 72 | 173 | 5.2 | 13.0 | 0.00 | 0.00 | 0.00 | 77 | 1006.5 |
| 20260505033732 | 72 | 173 | 5.2 | 13.0 | 0.00 | 0.00 | 0.00 | 77 | 1006.5 |
| 20260505032732 | 72 | 173 | 5.2 | 13.0 | 0.00 | 0.00 | 0.00 | 77 | 1006.5 |
| 20260505030732 | 72 | 173 | 5.2 | 13.0 | 0.00 | 0.00 | 0.00 | 77 | 1006.5 |
| 20260505024732 | 73 | 200 | 7.0 | 11.3 | 0.00 | 0.00 | 0.00 | 74 | 1006.1 |
| 20260505022732 | 73 | 200 | 7.0 | 11.3 | 0.00 | 0.00 | 0.00 | 74 | 1006.1 |
| 20260505020732 | 73 | 200 | 7.0 | 11.3 | 0.00 | 0.00 | 0.00 | 74 | 1006.1 |
| 20260505015732 | 75 | 173 | 7.0 | 14.8 | 0.00 | 0.00 | 0.00 | 70 | 1006.2 |
| 20260505014732 | 75 | 173 | 7.0 | 14.8 | 0.00 | 0.00 | 0.00 | 70 | 1006.2 |
| 20260505012732 | 75 | 173 | 7.0 | 14.8 | 0.00 | 0.00 | 0.00 | 70 | 1006.2 |
| 20260505011731 | 75 | 173 | 7.0 | 14.8 | 0.00 | 0.00 | 0.00 | 70 | 1006.2 |
| 20260505010732 | 75 | 173 | 7.0 | 14.8 | 0.00 | 0.00 | 0.00 | 70 | 1006.2 |
| 20260505005732 | 77 | 195 | 10.4 | 23.5 | 0.00 | 0.00 | 0.00 | 66 | 1006.7 |
| 20260505004732 | 77 | 195 | 10.4 | 23.5 | 0.00 | 0.00 | 0.00 | 66 | 1006.7 |
| 20260505003732 | 77 | 195 | 10.4 | 23.5 | 0.00 | 0.00 | 0.00 | 66 | 1006.7 |
| 20260505001731 | 77 | 195 | 10.4 | 23.5 | 0.00 | 0.00 | 0.00 | 66 | 1006.7 |
| 20260504235731 | 78 | 199 | 10.4 | 18.2 | 0.00 | 0.00 | 0.00 | 62 | 1007.0 |
| 20260504234732 | 78 | 199 | 10.4 | 18.2 | 0.00 | 0.00 | 0.00 | 62 | 1007.0 |
| 20260504233731 | 78 | 199 | 10.4 | 18.2 | 0.00 | 0.00 | 0.00 | 62 | 1007.0 |
| 20260504232732 | 78 | 199 | 10.4 | 18.2 | 0.00 | 0.00 | 0.00 | 62 | 1007.0 |
| 20260504231731 | 78 | 199 | 10.4 | 18.2 | 0.00 | 0.00 | 0.00 | 62 | 1007.0 |
| 20260504224732 | 79 | 158 | 11.3 | 21.7 | 0.00 | 0.00 | 0.00 | 61 | 1007.4 |
| 20260504223731 | 79 | 158 | 11.3 | 21.7 | 0.00 | 0.00 | 0.00 | 61 | 1007.4 |
| 20260504222731 | 79 | 158 | 11.3 | 21.7 | 0.00 | 0.00 | 0.00 | 61 | 1007.4 |
| 20260504221731 | 79 | 158 | 11.3 | 21.7 | 0.00 | 0.00 | 0.00 | 61 | 1007.4 |
| 20260504220731 | 79 | 158 | 11.3 | 21.7 | 0.00 | 0.00 | 0.00 | 61 | 1007.4 |
| 20260504214731 | 80 | 178 | 13.0 | 24.3 | 0.00 | 0.00 | 0.00 | 59 | 1008.1 |
| 20260504213732 | 80 | 178 | 13.0 | 24.3 | 0.00 | 0.00 | 0.00 | 59 | 1008.1 |
| 20260504212731 | 80 | 178 | 13.0 | 24.3 | 0.00 | 0.00 | 0.00 | 59 | 1008.1 |
| 20260504211731 | 80 | 178 | 13.0 | 24.3 | 0.00 | 0.00 | 0.00 | 59 | 1008.1 |
| 20260504210731 | 80 | 178 | 13.0 | 24.3 | 0.00 | 0.00 | 0.00 | 59 | 1008.1 |
| 20260504205732 | 79 | 162 | 8.7 | 21.7 | 0.00 | 0.00 | 0.00 | 61 | 1009.4 |
| 20260504202732 | 79 | 162 | 8.7 | 21.7 | 0.00 | 0.00 | 0.00 | 61 | 1009.4 |
| 20260504201732 | 79 | 162 | 8.7 | 21.7 | 0.00 | 0.00 | 0.00 | 61 | 1009.4 |
| 20260504200731 | 79 | 162 | 8.7 | 21.7 | 0.00 | 0.00 | 0.00 | 61 | 1009.4 |
| 20260504195731 | 79 | 183 | 7.0 | 20.0 | 0.00 | 0.00 | 0.00 | 58 | 1010.3 |
| 20260504194731 | 79 | 183 | 7.0 | 20.0 | 0.00 | 0.00 | 0.00 | 58 | 1010.3 |